Regional Weather Roundup
Issued by NWS

Home | Current Version | Previous Version | Text Only | Print | Product List | Glossary Off
Versions: 1 2 3 4 5 6 7 8 9 10 11 12 13 14 15 16 17 18 19 20 21 22 23 24 25 26 27 28 29 30 31 32 33 34 35 36 37 38 39 40 41 42 43 44 45 46 47 48 49 50

000
ASUS43 KFSD 250910
RWRSD

WEATHER ROUNDUP FOR SOUTH DAKOTA
NATIONAL WEATHER SERVICE SIOUX FALLS SD
400 AM CDT MON SEP 25 2017

NOTE: "FAIR" INDICATES FEW OR NO CLOUDS BELOW 12,000 FEET WITH NO
SIGNIFICANT WEATHER AND/OR OBSTRUCTIONS TO VISIBILITY.


SDZ001>005-009-010-012>017-251000-
NORTHWEST AND NORTH CENTRAL SOUTH DAKOTA

CITY           SKY/WX    TMP DP  RH WIND       PRES   REMARKS
BUFFALO          N/A     38  37  97 W5        30.06F
FAITH            N/A     45  44  97 N6        30.12S
MOBRIDGE       CLOUDY    50  45  83 N8        30.09F
$$

SDZ012>016-024>037-041>051-057-063-072>074-251000-
SOUTHWEST AND SOUTH CENTRAL SOUTH DAKOTA

CITY           SKY/WX    TMP DP  RH WIND       PRES   REMARKS
RAPID CTY ARPT NOT AVBL
PIERRE         CLOUDY    49  45  86 NE7       30.09S
CUSTER         LGT RAIN  37  34  89 E3        30.11S
ELLSWORTH AFB  LGT RAIN  45  45 100 CALM      30.14
PHILIP         CLOUDY    48  46  93 N7        30.12R
PINE RIDGE     LGT RAIN  45  45 100 CALM      30.15R
SPEARFISH      LGT RAIN  41  41 100 CALM      30.13S
WINNER         CLOUDY    51  48  89 N10       30.06F
$$

SDZ004>011-016>023-039-040-251000-
NORTHEAST SOUTH DAKOTA

CITY           SKY/WX    TMP DP  RH WIND       PRES   REMARKS
ABERDEEN       CLOUDY    49  46  90 N14       30.06F
WATERTOWN      CLOUDY    49  48  97 N14       30.02F
BROOKINGS      LGT RAIN  50  48  93 NE6       30.04R
SISSETON         N/A     51  49  92 N10       30.03F
$$

SDZ017-020-022-023-036>040-048>070-251000-
SOUTHEAST SOUTH DAKOTA

CITY           SKY/WX    TMP DP  RH WIND       PRES   REMARKS
SIOUX FALLS    RAIN      54  54 100 N10       30.00F
HURON          CLOUDY    50  48  93 N6        30.07R
CHAMBERLAIN    CLOUDY    52  49  90 N13       30.07R
MITCHELL       CLOUDY    52  50  93 N8        30.05F
YANKTON        RAIN      52  52 100 NW7       30.03R
$$

ABBREVIATIONS USED IN REMARKS
   TC - TEMPERATURE IN CELSIUS
  WCI - WIND CHILL INDEX
   HX - HEAT INDEX
  VSB - VISIBILITY





USA.gov is the U.S. government's official web portal to all federal, state and local government web resources and services.